Location: Newark
(29.9790°N, 31.1340°E)
Time: 01:42:39
(UTC+00:00)

Transit 2A Rocket - Pass Details

Date: 25 January 2020
Orbit: 591 x 912 km, 66.7° (Epoch: 21 February)

Event Time Altitude Azimuth Distance (km) Brightness Sun altitude
Rises 02:22:57 0° 197° (SSW) 2,896 - -31.6°
Reaches altitude 10° 02:25:16 10° 194° (SSW) 1,962 - -31.1°
Maximum altitude 02:29:36 65° 113° (ESE) 654 - -30.2°
Exits shadow 02:32:38 18° 34° (NE) 1,454 6.7 -29.5°
Drops below altitude 10° 02:33:50 10° 31° (NNE) 1,921 7.3 -29.3°
Sets 02:36:04 0° 29° (NNE) 2,830 8.2 -28.8°
